EW3309 Weather Reports


Display with metric or nautical units.
time (UTC)temp
F
wind
direction
speed
MPH
gust
MPH
rain 1hr
in
rain 24hr
in
rain mn
in
humidity
%
barometer
mb
20260502190046 71 338 0.0 0.0 0.00 0.00 0.00 70 1011.9
20260502184546 70 272 0.0 0.0 0.00 0.00 0.00 72 1012.1
20260502183036 68 331 0.0 0.0 0.00 0.00 0.00 75 1012.5
20260502181536 66 238 0.0 0.0 0.00 0.00 0.00 79 1012.6
20260502163007 61 329 0.0 0.0 0.00 0.00 0.00 88 1013.5
20260502161504 61 342 0.0 0.0 0.00 0.00 0.00 89 1013.6
20260502151611 60 344 0.0 0.0 0.00 0.00 0.00 90 1013.4
20260502123033 59 225 0.0 0.0 0.00 0.00 0.00 89 1012.6
20260502121535 59 225 0.0 0.0 0.00 0.00 0.00 89 1012.4
20260502114528 59 227 0.0 0.0 0.00 0.00 0.00 89 1012.3
20260502113027 58 300 0.0 0.0 0.00 0.00 0.00 89 1012.3
20260502111524 58 300 0.0 0.0 0.00 0.00 0.00 89 1012.3
20260502110022 58 300 0.0 0.0 0.00 0.00 0.00 89 1012.2
20260502104526 57 300 0.0 0.0 0.00 0.00 0.00 89 1012.1
20260502103020 57 300 0.0 0.0 0.00 0.00 0.00 89 1012.1
20260502101520 57 301 0.0 0.0 0.00 0.00 0.00 88 1012.1
20260502091519 56 301 0.0 0.0 0.00 0.00 0.00 87 1012.0
20260502071502 58 301 0.0 0.0 0.00 0.00 0.00 86 1012.8
20260502070122 58 301 0.0 0.0 0.00 0.00 0.00 86 1012.8
20260502064700 58 296 0.0 0.0 0.00 0.00 0.00 86 1012.7
20260502063121 58 295 0.0 0.0 0.00 0.00 0.00 86 1012.7
20260502061558 58 295 0.0 0.0 0.00 0.00 0.00 85 1012.7
20260502060059 58 295 0.0 0.0 0.00 0.00 0.00 84 1012.8
20260502054607 58 295 0.0 0.0 0.00 0.00 0.00 84 1012.9
20260502053056 59 295 0.0 0.0 0.00 0.00 0.00 84 1012.9
20260502051556 59 295 0.0 0.0 0.00 0.00 0.00 83 1012.7
20260502050055 60 295 0.0 0.0 0.00 0.00 0.00 83 1012.9
20260502044553 60 295 0.0 0.0 0.00 0.00 0.00 83 1012.6
20260502043109 60 295 0.0 0.0 0.00 0.00 0.00 82 1012.5
20260502041611 61 295 0.0 0.0 0.00 0.00 0.00 81 1012.4
20260502040054 61 295 0.0 0.0 0.00 0.00 0.00 81 1012.2
20260502034546 62 295 0.0 0.0 0.00 0.00 0.00 80 1012.1
20260502033043 62 295 0.0 0.0 0.00 0.00 0.00 80 1012.0
20260502031542 62 293 0.0 0.0 0.00 0.00 0.00 79 1011.8
20260502030058 63 294 0.0 0.0 0.00 0.00 0.00 78 1011.8
20260502024551 64 284 0.0 0.0 0.00 0.00 0.00 76 1011.6
20260502023054 65 284 0.0 0.0 0.00 0.00 0.00 74 1011.4
20260502021538 66 287 0.0 0.0 0.00 0.00 0.00 72 1011.2
20260502020038 67 283 0.0 0.0 0.00 0.00 0.00 70 1011.1
20260502014540 69 279 0.0 0.0 0.00 0.00 0.00 68 1010.8
20260502013044 70 292 0.0 0.0 0.00 0.00 0.00 65 1010.7
20260502011552 72 272 0.0 0.0 0.00 0.00 0.00 62 1010.5
20260502010037 73 284 0.0 0.0 0.00 0.00 0.00 60 1010.4
20260502004539 75 291 0.0 0.0 0.00 0.00 0.00 59 1010.1
20260502003035 75 281 0.0 0.0 0.00 0.00 0.00 57 1010.1
20260502001540 77 276 0.0 0.0 0.00 0.00 0.00 55 1010.0
20260502000050 77 292 0.0 0.0 0.00 0.00 0.00 54 1010.1
20260501234531 77 290 0.0 0.0 0.00 0.00 0.00 55 1010.0
20260501233029 77 251 0.0 0.0 0.00 0.00 0.00 55 1009.9
20260501231528 76 273 0.0 0.0 0.00 0.00 0.00 55 1010.1
20260501230056 76 284 0.0 0.0 0.00 0.00 0.00 55 1010.2
20260501224526 77 264 0.0 0.0 0.00 0.00 0.00 54 1010.4
20260501223023 77 248 0.0 0.0 0.00 0.00 0.00 53 1010.6
20260501221523 76 241 0.0 0.0 0.00 0.00 0.00 55 1010.7
20260501220021 77 281 0.0 0.0 0.00 0.00 0.00 54 1010.7
20260501214518 76 259 0.0 0.0 0.00 0.00 0.00 54 1011.0
20260501213020 77 269 0.0 0.0 0.00 0.00 0.00 52 1011.1
20260501211515 79 226 0.0 0.0 0.00 0.00 0.00 51 1011.1
20260501210012 80 192 0.0 0.0 0.00 0.00 0.00 49 1011.3
20260501204511 80 223 0.0 0.0 0.00 0.00 0.00 48 1011.2
20260501203020 80 257 0.0 0.0 0.00 0.00 0.00 49 1011.1
20260501201504 79 242 0.0 0.0 0.00 0.00 0.00 49 1011.3
20260501200001 78 207 0.0 0.0 0.00 0.00 0.00 50 1011.5
20260501194559 77 285 0.0 0.0 0.00 0.00 0.00 51 1011.7
20260501193053 76 314 0.0 0.0 0.00 0.00 0.00 53 1011.9
20260501191551 75 308 0.0 0.0 0.00 0.00 0.00 55 1012.1